| time (UTC) | temp F | wind direction | speed knots | gust knots | rain 1hr in | rain 24hr in | rain mn in | humidity % | barometer mb |
| 20260901054154 | 59 | 250 | 2.6 | 8.7 | 0.00 | 0.00 | 0.00 | 83 | 1009.9 |
| 20260901053654 | 59 | 254 | 2.6 | 8.7 | 0.00 | 0.00 | 0.00 | 83 | 1009.9 |
| 20260901053152 | 59 | 213 | 2.6 | 7.0 | 0.00 | 0.00 | 0.00 | 83 | 1009.9 |
| 20260901052658 | 59 | 279 | 1.7 | 6.1 | 0.00 | 0.00 | 0.00 | 83 | 1009.9 |
| 20260901052652 | 59 | 261 | 2.6 | 7.0 | 0.00 | 0.00 | 0.00 | 83 | 1009.8 |
| 20260901052152 | 59 | 280 | 2.6 | 6.1 | 0.00 | 0.00 | 0.00 | 83 | 1009.9 |
| 20260901051806 | 59 | 259 | 2.6 | 6.1 | 0.00 | 0.00 | 0.00 | 83 | 1010.0 |
| 20260901050651 | 59 | 284 | 2.6 | 7.0 | 0.00 | 0.00 | 0.00 | 83 | 1009.8 |
| 20260901050151 | 59 | 280 | 1.7 | 10.4 | 0.00 | 0.00 | 0.00 | 83 | 1009.9 |
| 20260901045651 | 59 | 227 | 2.6 | 10.4 | 0.00 | 0.00 | 0.00 | 83 | 1009.9 |
| 20260901045151 | 59 | 252 | 2.6 | 10.4 | 0.00 | 0.00 | 0.00 | 82 | 1009.9 |
| 20260901044651 | 60 | 298 | 3.5 | 10.4 | 0.00 | 0.00 | 0.00 | 82 | 1009.9 |
| 20260901044155 | 60 | 258 | 3.5 | 9.6 | 0.00 | 0.00 | 0.00 | 82 | 1009.9 |
| 20260901044149 | 60 | 237 | 3.5 | 7.8 | 0.00 | 0.00 | 0.00 | 82 | 1009.9 |
| 20260901043149 | 60 | 242 | 3.5 | 9.6 | 0.00 | 0.00 | 0.00 | 82 | 1009.9 |
| 20260901042649 | 60 | 249 | 2.6 | 6.1 | 0.00 | 0.00 | 0.00 | 81 | 1009.9 |
| 20260901042149 | 60 | 260 | 2.6 | 7.0 | 0.00 | 0.00 | 0.00 | 81 | 1009.8 |
| 20260901041650 | 60 | 259 | 2.6 | 10.4 | 0.00 | 0.00 | 0.00 | 81 | 1009.8 |
| 20260901041149 | 60 | 267 | 3.5 | 10.4 | 0.00 | 0.00 | 0.00 | 80 | 1009.8 |
| 20260901040650 | 60 | 254 | 3.5 | 8.7 | 0.00 | 0.00 | 0.00 | 80 | 1009.8 |
| 20260901040149 | 60 | 244 | 3.5 | 11.3 | 0.00 | 0.00 | 0.00 | 80 | 1009.7 |
| 20260901035649 | 60 | 300 | 3.5 | 12.2 | 0.00 | 0.00 | 0.00 | 80 | 1009.7 |
| 20260901035146 | 60 | 296 | 3.5 | 12.2 | 0.00 | 0.00 | 0.00 | 79 | 1009.5 |
| 20260901034650 | 60 | 236 | 3.5 | 11.3 | 0.00 | 0.00 | 0.00 | 79 | 1009.6 |
| 20260901034645 | 60 | 329 | 5.2 | 12.2 | 0.00 | 0.00 | 0.00 | 79 | 1009.5 |
| 20260901033645 | 61 | 280 | 4.3 | 12.2 | 0.00 | 0.00 | 0.00 | 79 | 1009.5 |
| 20260901033144 | 61 | 286 | 3.5 | 11.3 | 0.00 | 0.00 | 0.00 | 78 | 1009.4 |
| 20260901032643 | 61 | 252 | 3.5 | 8.7 | 0.00 | 0.00 | 0.00 | 77 | 1009.4 |
| 20260901032142 | 62 | 261 | 3.5 | 9.6 | 0.00 | 0.00 | 0.00 | 76 | 1009.2 |
| 20260901031643 | 62 | 221 | 3.5 | 11.3 | 0.00 | 0.00 | 0.00 | 76 | 1009.1 |
| 20260901031144 | 62 | 298 | 4.3 | 11.3 | 0.00 | 0.00 | 0.00 | 74 | 1009.0 |
| 20260901030642 | 63 | 286 | 4.3 | 10.4 | 0.00 | 0.00 | 0.00 | 74 | 1009.0 |
| 20260901030141 | 63 | 206 | 3.5 | 9.6 | 0.00 | 0.00 | 0.00 | 72 | 1008.9 |
| 20260901025641 | 64 | 219 | 3.5 | 9.6 | 0.00 | 0.00 | 0.00 | 71 | 1008.8 |
| 20260901025141 | 64 | 188 | 5.2 | 12.2 | 0.00 | 0.00 | 0.00 | 70 | 1008.7 |
| 20260901024641 | 64 | 209 | 6.1 | 13.0 | 0.00 | 0.00 | 0.00 | 70 | 1008.7 |
| 20260901024141 | 65 | 222 | 4.3 | 13.0 | 0.00 | 0.00 | 0.00 | 69 | 1008.5 |
| 20260901023640 | 65 | 219 | 4.3 | 10.4 | 0.00 | 0.00 | 0.00 | 68 | 1008.5 |
| 20260901023146 | 66 | 229 | 4.3 | 10.4 | 0.00 | 0.00 | 0.00 | 67 | 1008.3 |
| 20260901023142 | 65 | 228 | 4.3 | 10.4 | 0.00 | 0.00 | 0.00 | 67 | 1008.3 |
| 20260901022141 | 66 | 252 | 5.2 | 12.2 | 0.00 | 0.00 | 0.00 | 66 | 1008.2 |
| 20260901021641 | 67 | 263 | 4.3 | 12.2 | 0.00 | 0.00 | 0.00 | 65 | 1008.1 |
| 20260901021141 | 68 | 236 | 4.3 | 14.8 | 0.00 | 0.00 | 0.00 | 63 | 1008.1 |
| 20260901020640 | 68 | 248 | 4.3 | 14.8 | 0.00 | 0.00 | 0.00 | 61 | 1008.1 |
| 20260901020141 | 69 | 232 | 3.5 | 10.4 | 0.00 | 0.00 | 0.00 | 59 | 1008.1 |
| 20260901015640 | 69 | 185 | 3.5 | 10.4 | 0.00 | 0.00 | 0.00 | 58 | 1008.0 |
| 20260901015141 | 70 | 279 | 2.6 | 10.4 | 0.00 | 0.00 | 0.00 | 57 | 1008.0 |
| 20260901014639 | 70 | 292 | 3.5 | 10.4 | 0.00 | 0.00 | 0.00 | 57 | 1007.9 |
| 20260901014136 | 71 | 288 | 3.5 | 10.4 | 0.00 | 0.00 | 0.00 | 56 | 1008.0 |
| 20260901013636 | 71 | 275 | 3.5 | 10.4 | 0.00 | 0.00 | 0.00 | 55 | 1007.8 |
| 20260901013138 | 71 | 281 | 3.5 | 7.8 | 0.00 | 0.00 | 0.00 | 54 | 1008.0 |
| 20260901012638 | 72 | 321 | 4.3 | 11.3 | 0.00 | 0.00 | 0.00 | 53 | 1007.9 |
| 20260901012136 | 72 | 315 | 4.3 | 11.3 | 0.00 | 0.00 | 0.00 | 51 | 1008.0 |
| 20260901011638 | 73 | 268 | 4.3 | 12.2 | 0.00 | 0.00 | 0.00 | 50 | 1007.9 |
| 20260901011136 | 73 | 247 | 4.3 | 12.2 | 0.00 | 0.00 | 0.00 | 49 | 1008.1 |
| 20260901010640 | 75 | 0 | 3.5 | 8.7 | 0.00 | 0.00 | 0.00 | 48 | 1008.1 |
| 20260901010636 | 74 | 209 | 4.3 | 8.7 | 0.00 | 0.00 | 0.00 | 49 | 1008.1 |
| 20260901010251 | 75 | 256 | 3.5 | 8.7 | 0.00 | 0.00 | 0.00 | 48 | 1007.9 |
| 20260901005136 | 75 | 340 | 3.5 | 10.4 | 0.00 | 0.00 | 0.00 | 48 | 1008.0 |
| 20260901004637 | 76 | 280 | 3.5 | 10.4 | 0.00 | 0.00 | 0.00 | 47 | 1008.0 |
| 20260901004137 | 76 | 304 | 3.5 | 10.4 | 0.00 | 0.00 | 0.00 | 47 | 1007.9 |
| 20260901003638 | 77 | 189 | 4.3 | 10.4 | 0.00 | 0.00 | 0.00 | 47 | 1007.9 |
| 20260901003137 | 77 | 302 | 4.3 | 11.3 | 0.00 | 0.00 | 0.00 | 47 | 1007.8 |
| 20260901002636 | 78 | 205 | 3.5 | 11.3 | 0.00 | 0.00 | 0.00 | 45 | 1007.8 |
| 20260901002136 | 78 | 277 | 4.3 | 10.4 | 0.00 | 0.00 | 0.00 | 46 | 1007.8 |
| 20260901001642 | 79 | 300 | 4.3 | 12.2 | 0.00 | 0.00 | 0.00 | 45 | 1007.8 |
| 20260901001638 | 78 | 244 | 4.3 | 10.4 | 0.00 | 0.00 | 0.00 | 45 | 1007.8 |
| 20260901000642 | 79 | 324 | 5.2 | 12.2 | 0.00 | 0.00 | 0.00 | 45 | 1007.7 |
| 20260901000637 | 79 | 257 | 4.3 | 12.2 | 0.00 | 0.00 | 0.00 | 45 | 1007.7 |
| 20260831235637 | 80 | 274 | 5.2 | 12.2 | 0.00 | 0.00 | 0.00 | 44 | 1007.6 |
| 20260831235140 | 82 | 286 | 3.5 | 10.4 | 0.00 | 0.00 | 0.00 | 43 | 1007.5 |
| 20260831235136 | 81 | 275 | 4.3 | 10.4 | 0.00 | 0.00 | 0.00 | 43 | 1007.5 |
| 20260831234137 | 82 | 227 | 3.5 | 10.4 | 0.00 | 0.00 | 0.00 | 44 | 1007.4 |
| 20260831233635 | 82 | 313 | 3.5 | 8.7 | 0.00 | 0.00 | 0.00 | 44 | 1007.5 |
| 20260831233138 | 81 | 262 | 3.5 | 8.7 | 0.00 | 0.00 | 0.00 | 44 | 1007.5 |
| 20260831233134 | 81 | 270 | 4.3 | 8.7 | 0.00 | 0.00 | 0.00 | 44 | 1007.4 |
| 20260831232747 | 81 | 333 | 2.6 | 8.7 | 0.00 | 0.00 | 0.00 | 44 | 1007.5 |
| 20260831232134 | 81 | 271 | 3.5 | 11.3 | 0.00 | 0.00 | 0.00 | 44 | 1007.6 |
| 20260831231132 | 82 | 263 | 3.5 | 11.3 | 0.00 | 0.00 | 0.00 | 42 | 1007.6 |
| 20260831230632 | 83 | 192 | 2.6 | 8.7 | 0.00 | 0.00 | 0.00 | 41 | 1007.5 |
| 20260831230132 | 84 | 299 | 2.6 | 7.8 | 0.00 | 0.00 | 0.00 | 40 | 1007.5 |
| 20260831225630 | 84 | 244 | 2.6 | 7.8 | 0.00 | 0.00 | 0.00 | 41 | 1007.5 |
| 20260831225131 | 84 | 258 | 2.6 | 9.6 | 0.00 | 0.00 | 0.00 | 41 | 1007.5 |
| 20260831224631 | 84 | 303 | 3.5 | 9.6 | 0.00 | 0.00 | 0.00 | 41 | 1007.5 |
| 20260831224128 | 85 | 250 | 2.6 | 7.0 | 0.00 | 0.00 | 0.00 | 40 | 1007.5 |
| 20260831223628 | 85 | 242 | 2.6 | 7.0 | 0.00 | 0.00 | 0.00 | 40 | 1007.5 |
| 20260831223127 | 85 | 231 | 3.5 | 7.0 | 0.00 | 0.00 | 0.00 | 41 | 1007.4 |
| 20260831222626 | 85 | 288 | 3.5 | 10.4 | 0.00 | 0.00 | 0.00 | 40 | 1007.5 |
| 20260831222126 | 85 | 252 | 3.5 | 10.4 | 0.00 | 0.00 | 0.00 | 40 | 1007.5 |
| 20260831221626 | 85 | 301 | 2.6 | 7.8 | 0.00 | 0.00 | 0.00 | 39 | 1007.5 |
| 20260831221124 | 85 | 303 | 0.9 | 4.3 | 0.00 | 0.00 | 0.00 | 35 | 1007.5 |
| 20260831220625 | 85 | 184 | 0.9 | 3.5 | 0.00 | 0.00 | 0.00 | 37 | 1007.5 |
| 20260831220126 | 84 | 206 | 0.9 | 3.5 | 0.00 | 0.00 | 0.00 | 36 | 1007.7 |
| 20260831220122 | 84 | 253 | 1.7 | 3.5 | 0.00 | 0.00 | 0.00 | 35 | 1007.7 |
| 20260831215733 | 84 | 69 | 1.7 | 3.5 | 0.00 | 0.00 | 0.00 | 37 | 1007.9 |
| 20260831215119 | 84 | 336 | 0.9 | 3.5 | 0.00 | 0.00 | 0.00 | 36 | 1007.7 |
| 20260831214738 | 83 | 93 | 1.7 | 6.1 | 0.00 | 0.00 | 0.00 | 38 | 1007.9 |
| 20260831214733 | 83 | 167 | 1.7 | 3.5 | 0.00 | 0.00 | 0.00 | 37 | 1007.9 |
| 20260831213120 | 82 | 184 | 1.7 | 6.1 | 0.00 | 0.00 | 0.00 | 39 | 1008.0 |
| 20260831212619 | 82 | 178 | 0.9 | 6.1 | 0.00 | 0.00 | 0.00 | 39 | 1008.0 |
| 20260831212118 | 82 | 238 | 1.7 | 6.1 | 0.00 | 0.00 | 0.00 | 38 | 1008.1 |
| 20260831211618 | 81 | 165 | 1.7 | 6.1 | 0.00 | 0.00 | 0.00 | 39 | 1008.1 |
| 20260831211120 | 82 | 84 | 2.6 | 5.2 | 0.00 | 0.00 | 0.00 | 39 | 1008.2 |
| 20260831210619 | 82 | 0 | 1.7 | 5.2 | 0.00 | 0.00 | 0.00 | 39 | 1008.2 |
| 20260831210122 | 81 | 170 | 0.9 | 3.5 | 0.00 | 0.00 | 0.00 | 39 | 1008.3 |
| 20260831210116 | 82 | 42 | 0.9 | 3.5 | 0.00 | 0.00 | 0.00 | 40 | 1008.2 |
| 20260831205729 | 81 | 175 | 1.7 | 3.5 | 0.00 | 0.00 | 0.00 | 40 | 1008.4 |
| 20260831205231 | 81 | 146 | 1.7 | 4.3 | 0.00 | 0.00 | 0.00 | 40 | 1008.4 |
| 20260831204116 | 81 | 191 | 1.7 | 4.3 | 0.00 | 0.00 | 0.00 | 39 | 1008.4 |
| 20260831203617 | 81 | 134 | 0.9 | 4.3 | 0.00 | 0.00 | 0.00 | 40 | 1008.5 |
| 20260831203120 | 80 | 163 | 1.7 | 3.5 | 0.00 | 0.00 | 0.00 | 41 | 1008.6 |
| 20260831203116 | 81 | 162 | 0.9 | 3.5 | 0.00 | 0.00 | 0.00 | 40 | 1008.6 |
| 20260831202116 | 80 | 174 | 1.7 | 3.5 | 0.00 | 0.00 | 0.00 | 41 | 1008.7 |
| 20260831201616 | 80 | 103 | 1.7 | 3.5 | 0.00 | 0.00 | 0.00 | 42 | 1008.8 |
| 20260831201114 | 80 | 79 | 0.9 | 3.5 | 0.00 | 0.00 | 0.00 | 42 | 1008.9 |
| 20260831200614 | 79 | 157 | 0.9 | 3.5 | 0.00 | 0.00 | 0.00 | 41 | 1009.0 |
| 20260831200114 | 79 | 22 | 1.7 | 4.3 | 0.00 | 0.00 | 0.00 | 43 | 1009.0 |
| 20260831195614 | 78 | 15 | 0.9 | 4.3 | 0.00 | 0.00 | 0.00 | 42 | 1009.1 |
| 20260831195119 | 78 | 81 | 0.9 | 4.3 | 0.00 | 0.00 | 0.00 | 42 | 1009.2 |
| 20260831195115 | 78 | 117 | 0.9 | 4.3 | 0.00 | 0.00 | 0.00 | 43 | 1009.2 |
| 20260831194114 | 78 | 355 | 1.7 | 4.3 | 0.00 | 0.00 | 0.00 | 44 | 1009.3 |
| 20260831193614 | 77 | 194 | 1.7 | 6.1 | 0.00 | 0.00 | 0.00 | 44 | 1009.4 |
| 20260831193114 | 77 | 175 | 1.7 | 6.1 | 0.00 | 0.00 | 0.00 | 44 | 1009.4 |
| 20260831192613 | 76 | 105 | 1.7 | 4.3 | 0.00 | 0.00 | 0.00 | 46 | 1009.5 |
| 20260831192112 | 76 | 232 | 1.7 | 4.3 | 0.00 | 0.00 | 0.00 | 45 | 1009.6 |
| 20260831191612 | 76 | 227 | 1.7 | 5.2 | 0.00 | 0.00 | 0.00 | 45 | 1009.7 |
| 20260831191112 | 76 | 334 | 0.9 | 5.2 | 0.00 | 0.00 | 0.00 | 45 | 1009.7 |
| 20260831190611 | 76 | 355 | 0.9 | 5.2 | 0.00 | 0.00 | 0.00 | 45 | 1009.7 |
| 20260831190112 | 76 | 74 | 1.7 | 5.2 | 0.00 | 0.00 | 0.00 | 45 | 1009.9 |
| 20260831185614 | 76 | 178 | 1.7 | 4.3 | 0.00 | 0.00 | 0.00 | 46 | 1009.9 |
| 20260831185112 | 76 | 178 | 0.9 | 3.5 | 0.00 | 0.00 | 0.00 | 46 | 1009.9 |
| 20260831184612 | 76 | 179 | 0.9 | 2.6 | 0.00 | 0.00 | 0.00 | 46 | 1009.9 |
| 20260831184113 | 75 | 163 | 0.9 | 3.5 | 0.00 | 0.00 | 0.00 | 48 | 1010.0 |
| 20260831183611 | 74 | 178 | 0.9 | 3.5 | 0.00 | 0.00 | 0.00 | 49 | 1010.1 |
| 20260831183109 | 73 | 181 | 1.7 | 4.3 | 0.00 | 0.00 | 0.00 | 49 | 1010.2 |
| 20260831182611 | 73 | 178 | 0.9 | 4.3 | 0.00 | 0.00 | 0.00 | 51 | 1010.2 |
| 20260831182110 | 73 | 153 | 0.9 | 4.3 | 0.00 | 0.00 | 0.00 | 52 | 1010.3 |
| 20260831181610 | 72 | 192 | 0.9 | 4.3 | 0.00 | 0.00 | 0.00 | 52 | 1010.3 |
| 20260831181111 | 72 | 254 | 0.9 | 2.6 | 0.00 | 0.00 | 0.00 | 55 | 1010.3 |
| 20260831180616 | 71 | 273 | 0.9 | 3.5 | 0.00 | 0.00 | 0.00 | 54 | 1010.4 |
| 20260831180612 | 71 | 304 | 0.9 | 3.5 | 0.00 | 0.00 | 0.00 | 54 | 1010.4 |
| 20260831175616 | 71 | 181 | 0.0 | 2.6 | 0.00 | 0.00 | 0.00 | 55 | 1010.6 |
| 20260831175610 | 71 | 10 | 1.7 | 2.6 | 0.00 | 0.00 | 0.00 | 55 | 1010.5 |
| 20260831175110 | 71 | 287 | 0.9 | 3.5 | 0.00 | 0.00 | 0.00 | 54 | 1010.5 |
| 20260831174610 | 71 | 184 | 0.9 | 3.5 | 0.00 | 0.00 | 0.00 | 55 | 1010.6 |
| 20260831173609 | 70 | 170 | 0.9 | 3.5 | 0.00 | 0.00 | 0.00 | 57 | 1010.6 |
| 20260831173109 | 70 | 167 | 0.9 | 3.5 | 0.00 | 0.00 | 0.00 | 56 | 1010.7 |
| 20260831172606 | 70 | 182 | 0.9 | 2.6 | 0.00 | 0.00 | 0.00 | 57 | 1010.7 |
| 20260831172107 | 70 | 76 | 0.9 | 2.6 | 0.00 | 0.00 | 0.00 | 58 | 1010.7 |
| 20260831171607 | 69 | 133 | 0.9 | 3.5 | 0.00 | 0.00 | 0.00 | 58 | 1010.9 |
| 20260831171112 | 69 | 179 | 0.0 | 1.7 | 0.00 | 0.00 | 0.00 | 59 | 1011.0 |
| 20260831171107 | 69 | 191 | 0.9 | 3.5 | 0.00 | 0.00 | 0.00 | 58 | 1011.0 |
| 20260831170106 | 69 | 85 | 0.0 | 1.7 | 0.00 | 0.00 | 0.00 | 61 | 1011.0 |
| 20260831165607 | 68 | 73 | 0.0 | 2.6 | 0.00 | 0.00 | 0.00 | 63 | 1011.0 |
| 20260831165103 | 67 | 49 | 0.9 | 2.6 | 0.00 | 0.00 | 0.00 | 63 | 1011.1 |
| 20260831164604 | 67 | 13 | 0.9 | 2.6 | 0.00 | 0.00 | 0.00 | 64 | 1011.1 |
| 20260831164104 | 67 | 5 | 0.9 | 2.6 | 0.00 | 0.00 | 0.00 | 68 | 1011.2 |
| 20260831163604 | 65 | 290 | 0.0 | 2.6 | 0.00 | 0.00 | 0.00 | 68 | 1011.1 |
| 20260831163103 | 65 | 289 | 0.0 | 2.6 | 0.00 | 0.00 | 0.00 | 68 | 1011.1 |
| 20260831162603 | 65 | 230 | 0.0 | 0.0 | 0.00 | 0.00 | 0.00 | 70 | 1011.3 |
| 20260831162104 | 64 | 230 | 0.0 | 0.0 | 0.00 | 0.00 | 0.00 | 74 | 1011.3 |
| 20260831161603 | 62 | 230 | 0.0 | 1.7 | 0.00 | 0.00 | 0.00 | 76 | 1011.3 |
| 20260831161108 | 60 | 230 | 0.0 | 1.7 | 0.00 | 0.00 | 0.00 | 78 | 1011.5 |
| 20260831161103 | 61 | 230 | 0.0 | 1.7 | 0.00 | 0.00 | 0.00 | 78 | 1011.4 |
| 20260831160717 | 58 | 228 | 0.0 | 1.7 | 0.00 | 0.00 | 0.00 | 82 | 1011.5 |
| 20260831160104 | 59 | 230 | 0.0 | 1.7 | 0.00 | 0.00 | 0.00 | 80 | 1011.5 |
| 20260831155103 | 58 | 228 | 0.9 | 2.6 | 0.00 | 0.00 | 0.00 | 83 | 1011.6 |
| 20260831154604 | 57 | 221 | 0.9 | 2.6 | 0.00 | 0.00 | 0.00 | 83 | 1011.6 |
| 20260831154103 | 57 | 226 | 0.0 | 2.6 | 0.00 | 0.00 | 0.00 | 85 | 1011.6 |
| 20260831153604 | 56 | 277 | 0.0 | 0.0 | 0.00 | 0.00 | 0.00 | 86 | 1011.7 |
| 20260831153105 | 56 | 231 | 0.0 | 0.0 | 0.00 | 0.00 | 0.00 | 87 | 1011.6 |
| 20260831152604 | 55 | 228 | 0.0 | 0.0 | 0.00 | 0.00 | 0.00 | 88 | 1011.7 |
| 20260831152108 | 54 | 213 | 0.0 | 0.0 | 0.00 | 0.00 | 0.00 | 90 | 1011.7 |
| 20260831152103 | 55 | 215 | 0.0 | 0.0 | 0.00 | 0.00 | 0.00 | 89 | 1011.7 |
| 20260831151109 | 53 | 213 | 0.0 | 0.0 | 0.00 | 0.00 | 0.00 | 92 | 1011.8 |
| 20260831151104 | 54 | 213 | 0.0 | 0.0 | 0.00 | 0.00 | 0.00 | 91 | 1011.8 |
| 20260831150104 | 53 | 213 | 0.0 | 0.0 | 0.00 | 0.00 | 0.00 | 92 | 1011.8 |
| 20260831145604 | 52 | 213 | 0.0 | 0.0 | 0.00 | 0.00 | 0.00 | 92 | 1011.9 |
| 20260831145103 | 52 | 213 | 0.0 | 0.0 | 0.00 | 0.00 | 0.00 | 93 | 1011.9 |
| 20260831144604 | 51 | 213 | 0.0 | 0.0 | 0.00 | 0.00 | 0.00 | 93 | 1011.9 |
| 20260831144105 | 51 | 212 | 0.0 | 0.0 | 0.00 | 0.00 | 0.00 | 94 | 1011.8 |
| 20260831143605 | 50 | 212 | 0.0 | 0.0 | 0.00 | 0.00 | 0.00 | 95 | 1011.7 |
| 20260831143104 | 50 | 212 | 0.0 | 0.0 | 0.00 | 0.00 | 0.00 | 95 | 1011.7 |
| 20260831142603 | 49 | 212 | 0.0 | 0.0 | 0.00 | 0.00 | 0.00 | 95 | 1011.8 |
| 20260831142105 | 48 | 174 | 0.0 | 0.0 | 0.00 | 0.00 | 0.00 | 94 | 1011.7 |
| 20260831141609 | 48 | 174 | 0.0 | 0.0 | 0.00 | 0.00 | 0.00 | 93 | 1011.8 |
| 20260831141605 | 48 | 174 | 0.0 | 0.0 | 0.00 | 0.00 | 0.00 | 92 | 1011.7 |
| 20260831141216 | 48 | 174 | 0.0 | 0.0 | 0.00 | 0.00 | 0.00 | 91 | 1011.8 |
| 20260831140108 | 49 | 174 | 0.0 | 0.0 | 0.00 | 0.00 | 0.00 | 92 | 1011.7 |
| 20260831135602 | 48 | 174 | 0.0 | 0.0 | 0.00 | 0.00 | 0.00 | 90 | 1011.7 |
| 20260831134603 | 49 | 174 | 0.0 | 0.0 | 0.00 | 0.00 | 0.00 | 91 | 1011.8 |
| 20260831134102 | 49 | 174 | 0.0 | 0.0 | 0.00 | 0.00 | 0.00 | 91 | 1011.8 |
| 20260831133602 | 49 | 174 | 0.0 | 0.0 | 0.00 | 0.00 | 0.00 | 91 | 1011.8 |
| 20260831133108 | 49 | 174 | 0.0 | 0.0 | 0.00 | 0.00 | 0.00 | 90 | 1011.9 |
| 20260831133103 | 49 | 174 | 0.0 | 0.0 | 0.00 | 0.00 | 0.00 | 91 | 1011.8 |
| 20260831132101 | 50 | 174 | 0.0 | 0.0 | 0.00 | 0.00 | 0.00 | 90 | 1011.9 |
| 20260831131600 | 50 | 174 | 0.0 | 0.0 | 0.00 | 0.00 | 0.00 | 91 | 1011.9 |
| 20260831131103 | 51 | 174 | 0.0 | 0.0 | 0.00 | 0.00 | 0.00 | 91 | 1012.0 |
| 20260831131057 | 50 | 174 | 0.0 | 0.0 | 0.00 | 0.00 | 0.00 | 91 | 1011.9 |
| 20260831130057 | 51 | 174 | 0.0 | 0.0 | 0.00 | 0.00 | 0.00 | 91 | 1012.0 |
| 20260831125711 | 50 | 174 | 0.0 | 0.0 | 0.00 | 0.00 | 0.00 | 92 | 1011.9 |
| 20260831124557 | 50 | 174 | 0.0 | 0.0 | 0.00 | 0.00 | 0.00 | 91 | 1011.9 |
| 20260831124057 | 50 | 174 | 0.0 | 0.0 | 0.00 | 0.00 | 0.00 | 91 | 1011.9 |
| 20260831123558 | 51 | 174 | 0.0 | 0.0 | 0.00 | 0.00 | 0.00 | 91 | 1011.9 |
| 20260831123057 | 50 | 174 | 0.0 | 0.0 | 0.00 | 0.00 | 0.00 | 92 | 1012.0 |
| 20260831122556 | 50 | 173 | 0.0 | 0.0 | 0.00 | 0.00 | 0.00 | 92 | 1012.0 |
| 20260831122053 | 50 | 174 | 0.0 | 0.0 | 0.00 | 0.00 | 0.00 | 90 | 1012.0 |
| 20260831121554 | 50 | 174 | 0.0 | 0.0 | 0.00 | 0.00 | 0.00 | 90 | 1012.1 |
| 20260831121053 | 50 | 174 | 0.0 | 0.0 | 0.00 | 0.00 | 0.00 | 91 | 1012.2 |
| 20260831120553 | 51 | 174 | 0.0 | 0.0 | 0.00 | 0.00 | 0.00 | 90 | 1012.2 |
| 20260831120055 | 50 | 173 | 0.0 | 0.0 | 0.00 | 0.00 | 0.00 | 91 | 1012.3 |
| 20260831120051 | 51 | 174 | 0.0 | 0.0 | 0.00 | 0.00 | 0.00 | 91 | 1012.2 |
| 20260831115051 | 50 | 173 | 0.0 | 0.0 | 0.00 | 0.00 | 0.00 | 90 | 1012.3 |
| 20260831114551 | 50 | 173 | 0.0 | 0.0 | 0.00 | 0.00 | 0.00 | 89 | 1012.3 |
| 20260831114051 | 51 | 173 | 0.0 | 0.0 | 0.00 | 0.00 | 0.00 | 89 | 1012.4 |
| 20260831113551 | 51 | 173 | 0.0 | 0.0 | 0.00 | 0.00 | 0.00 | 89 | 1012.4 |
| 20260831113053 | 51 | 173 | 0.0 | 0.0 | 0.00 | 0.00 | 0.00 | 90 | 1012.4 |
| 20260831113049 | 51 | 173 | 0.0 | 0.0 | 0.00 | 0.00 | 0.00 | 89 | 1012.4 |
| 20260831112050 | 51 | 173 | 0.0 | 0.0 | 0.00 | 0.00 | 0.00 | 91 | 1012.4 |
| 20260831111549 | 51 | 173 | 0.0 | 0.0 | 0.00 | 0.00 | 0.00 | 91 | 1012.5 |
| 20260831111049 | 51 | 173 | 0.0 | 0.0 | 0.00 | 0.00 | 0.00 | 90 | 1012.5 |
| 20260831110549 | 51 | 173 | 0.0 | 0.0 | 0.00 | 0.00 | 0.00 | 90 | 1012.4 |
| 20260831110049 | 51 | 173 | 0.0 | 0.0 | 0.00 | 0.00 | 0.00 | 90 | 1012.4 |
| 20260831105551 | 51 | 173 | 0.0 | 0.0 | 0.00 | 0.00 | 0.00 | 91 | 1012.4 |
| 20260831105050 | 51 | 173 | 0.0 | 0.0 | 0.00 | 0.00 | 0.00 | 90 | 1012.5 |
| 20260831104548 | 51 | 173 | 0.0 | 1.7 | 0.00 | 0.00 | 0.00 | 90 | 1012.5 |
| 20260831104048 | 51 | 173 | 0.0 | 1.7 | 0.00 | 0.00 | 0.00 | 90 | 1012.5 |
| 20260831103553 | 51 | 173 | 0.0 | 0.0 | 0.00 | 0.00 | 0.00 | 89 | 1012.6 |
| 20260831103548 | 51 | 173 | 0.0 | 1.7 | 0.00 | 0.00 | 0.00 | 90 | 1012.5 |
| 20260831103047 | 51 | 173 | 0.0 | 1.7 | 0.00 | 0.00 | 0.00 | 90 | 1012.5 |
| 20260831102047 | 51 | 173 | 0.0 | 0.0 | 0.00 | 0.00 | 0.00 | 89 | 1012.6 |
| 20260831101547 | 51 | 173 | 0.0 | 0.0 | 0.00 | 0.00 | 0.00 | 89 | 1012.6 |
| 20260831101047 | 51 | 173 | 0.0 | 0.0 | 0.00 | 0.00 | 0.00 | 88 | 1012.6 |
| 20260831100548 | 51 | 173 | 0.0 | 0.0 | 0.00 | 0.00 | 0.00 | 88 | 1012.8 |
| 20260831100047 | 51 | 173 | 0.0 | 0.0 | 0.00 | 0.00 | 0.00 | 87 | 1012.7 |
| 20260831095548 | 52 | 173 | 0.0 | 0.0 | 0.00 | 0.00 | 0.00 | 87 | 1012.8 |
| 20260831095046 | 52 | 173 | 0.0 | 1.7 | 0.00 | 0.00 | 0.00 | 87 | 1012.9 |
| 20260831094545 | 52 | 173 | 0.0 | 1.7 | 0.00 | 0.00 | 0.00 | 87 | 1012.9 |
| 20260831094046 | 53 | 173 | 0.0 | 1.7 | 0.00 | 0.00 | 0.00 | 87 | 1012.9 |
| 20260831093545 | 53 | 173 | 0.9 | 1.7 | 0.00 | 0.00 | 0.00 | 88 | 1013.1 |
| 20260831093045 | 53 | 173 | 0.0 | 1.7 | 0.00 | 0.00 | 0.00 | 88 | 1013.1 |
| 20260831092547 | 53 | 173 | 0.0 | 1.7 | 0.00 | 0.00 | 0.00 | 89 | 1013.2 |
| 20260831092045 | 53 | 173 | 0.0 | 1.7 | 0.00 | 0.00 | 0.00 | 89 | 1013.2 |
| 20260831091546 | 53 | 173 | 0.0 | 0.9 | 0.00 | 0.00 | 0.00 | 89 | 1013.3 |
| 20260831091045 | 52 | 173 | 0.0 | 0.0 | 0.00 | 0.00 | 0.00 | 87 | 1013.3 |
| 20260831090545 | 53 | 173 | 0.0 | 0.0 | 0.00 | 0.00 | 0.00 | 87 | 1013.3 |
| 20260831090043 | 53 | 173 | 0.0 | 0.0 | 0.00 | 0.00 | 0.00 | 87 | 1013.4 |
| 20260831085543 | 53 | 173 | 0.0 | 1.7 | 0.00 | 0.00 | 0.00 | 87 | 1013.5 |
| 20260831085044 | 53 | 173 | 0.0 | 1.7 | 0.00 | 0.00 | 0.00 | 88 | 1013.5 |
| 20260831084543 | 53 | 173 | 0.0 | 0.0 | 0.00 | 0.00 | 0.00 | 87 | 1013.5 |
| 20260831084043 | 53 | 173 | 0.0 | 0.0 | 0.00 | 0.00 | 0.00 | 86 | 1013.5 |
| 20260831083543 | 54 | 173 | 0.0 | 0.0 | 0.00 | 0.00 | 0.00 | 85 | 1013.6 |
| 20260831083043 | 54 | 173 | 0.0 | 0.0 | 0.00 | 0.00 | 0.00 | 85 | 1013.6 |
| 20260831082547 | 54 | 173 | 0.0 | 1.7 | 0.00 | 0.00 | 0.00 | 87 | 1013.6 |
| 20260831082543 | 54 | 173 | 0.0 | 1.7 | 0.00 | 0.00 | 0.00 | 87 | 1013.6 |
| 20260831081543 | 54 | 171 | 0.0 | 1.7 | 0.00 | 0.00 | 0.00 | 87 | 1013.8 |
| 20260831081043 | 54 | 201 | 0.0 | 0.0 | 0.00 | 0.00 | 0.00 | 86 | 1013.8 |
| 20260831080544 | 54 | 201 | 0.0 | 0.0 | 0.00 | 0.00 | 0.00 | 85 | 1013.9 |
| 20260831080043 | 54 | 201 | 0.0 | 1.7 | 0.00 | 0.00 | 0.00 | 86 | 1013.9 |
| 20260831075548 | 54 | 173 | 0.0 | 0.0 | 0.00 | 0.00 | 0.00 | 86 | 1014.0 |
| 20260831075543 | 54 | 201 | 0.0 | 1.7 | 0.00 | 0.00 | 0.00 | 86 | 1014.0 |
| 20260831074540 | 54 | 173 | 0.0 | 1.7 | 0.00 | 0.00 | 0.00 | 85 | 1014.0 |
| 20260831074040 | 54 | 173 | 0.0 | 1.7 | 0.00 | 0.00 | 0.00 | 85 | 1014.0 |
| 20260831073540 | 54 | 173 | 0.0 | 1.7 | 0.00 | 0.00 | 0.00 | 83 | 1014.1 |
| 20260831073042 | 55 | 173 | 0.0 | 0.9 | 0.00 | 0.00 | 0.00 | 83 | 1014.2 |
| 20260831072544 | 55 | 173 | 0.0 | 1.7 | 0.00 | 0.00 | 0.00 | 82 | 1014.2 |
| 20260831072539 | 55 | 173 | 0.0 | 1.7 | 0.00 | 0.00 | 0.00 | 84 | 1014.2 |
| 20260831071539 | 56 | 173 | 0.0 | 1.7 | 0.00 | 0.00 | 0.00 | 83 | 1014.2 |
| 20260831071039 | 56 | 173 | 0.0 | 1.7 | 0.00 | 0.00 | 0.00 | 83 | 1014.3 |
| 20260831070539 | 56 | 173 | 0.0 | 2.6 | 0.00 | 0.00 | 0.00 | 83 | 1014.2 |
| 20260831070040 | 56 | 173 | 0.9 | 2.6 | 0.00 | 0.00 | 0.00 | 83 | 1014.3 |
| 20260831065545 | 56 | 173 | 0.9 | 2.6 | 0.00 | 0.00 | 0.00 | 83 | 1014.5 |
| 20260831065539 | 56 | 173 | 0.9 | 2.6 | 0.00 | 0.00 | 0.00 | 83 | 1014.4 |
| 20260831064538 | 56 | 173 | 0.0 | 1.7 | 0.00 | 0.00 | 0.00 | 83 | 1014.5 |
| 20260831064043 | 56 | 205 | 0.0 | 0.0 | 0.00 | 0.00 | 0.00 | 83 | 1014.5 |
| 20260831064039 | 56 | 205 | 0.0 | 1.7 | 0.00 | 0.00 | 0.00 | 83 | 1014.5 |
| 20260831063037 | 56 | 205 | 0.0 | 0.0 | 0.00 | 0.00 | 0.00 | 83 | 1014.5 |
| 20260831062537 | 56 | 205 | 0.0 | 0.0 | 0.00 | 0.00 | 0.00 | 84 | 1014.5 |
| 20260831062037 | 56 | 205 | 0.0 | 0.0 | 0.00 | 0.00 | 0.00 | 83 | 1014.6 |
| 20260831061542 | 56 | 205 | 0.0 | 0.0 | 0.00 | 0.00 | 0.00 | 81 | 1014.8 |
| 20260831061538 | 56 | 205 | 0.0 | 0.0 | 0.00 | 0.00 | 0.00 | 81 | 1014.7 |
| 20260831060537 | 56 | 205 | 0.0 | 0.0 | 0.00 | 0.00 | 0.00 | 81 | 1014.8 |
| 20260831060036 | 57 | 205 | 0.0 | 0.0 | 0.00 | 0.00 | 0.00 | 82 | 1014.9 |
| 20260831055535 | 57 | 205 | 0.0 | 0.0 | 0.00 | 0.00 | 0.00 | 82 | 1015.0 |
| 20260831055035 | 57 | 205 | 0.0 | 0.0 | 0.00 | 0.00 | 0.00 | 81 | 1015.0 |